Lakeville, MN

10:01 AM CST on February 20, 2017 (GMT -0600)
Airlake

Weather History for KLVN - June, 2014

Change the Weather History Date:

Monday, June 9, 2014

  Actual Average Record
Temperature  
Mean Temperature 62 °F -  
Max Temperature 69 °F 77 °F 95 °F (1973)
Min Temperature 55 °F 55 °F 44 °F (1987)
Degree Days  
Heating Degree Days 3    
Growing Degree Days 12 (Base 50)    
Moisture  
Dew Point 52 °F    
Average Humidity 74    
Maximum Humidity 94    
Minimum Humidity 56    
Precipitation  
Precipitation 0.01 in - - ()
Sea Level Pressure  
Sea Level Pressure 30.02 in    
Wind  
Wind Speed 2 mph (NE)    
Max Wind Speed 10 mph    
Max Gust Speed -    
Visibility 10 miles    
Events Rain    
Averages and records for this station are not official NWS values.
T = Trace of Precipitation, MM = Missing Value Source: NWS Daily Summary

Daily Weather History Graph

Daily Weather History Graph

Search for Another Location

Airport or City:

Trip Planner

Search our weather history database for the weather conditions in past years. The results will help you decide how hot, cold, wet, or windy it might be!

Date:

Astronomy

Jun. 09, 2014 Rise Set
Actual Time 5:27 AM CDT 8:56 PM CDT
Civil Twilight 4:51 AM CDT 9:33 PM CDT
Nautical Twilight 4:02 AM CDT 10:21 PM CDT
Astronomical Twilight 3:01 AM CDT 11:24 PM CDT
Moon 5:10 PM CDT (6/9) 3:04 AM CDT (6/9)
Length of Visible Light 16h 42m
Length of Day
15h 29m
Waxing Gibbous, 85% of the Moon is Illuminated
Jun 9
Waxing Gibbous
Jun 12
Full
Jun 19
Last Quarter
Jun 27
New
Jul 5
First Quarter

Hourly Weather History & Observations

Time (CDT) Temp. Dew Point Humidity Pressure Visibility Wind Dir Wind Speed Gust Speed Precip Events Conditions
12:13 AM 59.0 °F 50.0 °F 72% 30.05 in 10.0 mi Calm Calm - N/A   Scattered Clouds
12:34 AM 59.0 °F 51.8 °F 77% 30.04 in 10.0 mi Calm Calm - N/A   Clear
12:53 AM 59.0 °F 51.8 °F 77% 30.04 in 10.0 mi Calm Calm - N/A   Clear
1:14 AM 57.2 °F 51.8 °F 82% 30.03 in 10.0 mi Calm Calm - N/A   Clear
1:34 AM 57.2 °F 51.8 °F 82% 30.03 in 10.0 mi Calm Calm - N/A   Scattered Clouds
1:53 AM 57.2 °F 51.8 °F 82% 30.03 in 10.0 mi Calm Calm - N/A   Scattered Clouds
2:14 AM 59.0 °F 48.2 °F 67% 30.02 in 10.0 mi Calm Calm - N/A   Scattered Clouds
2:34 AM 57.2 °F 51.8 °F 82% 30.02 in 10.0 mi Calm Calm - N/A   Scattered Clouds
2:53 AM 57.2 °F 48.2 °F 72% 30.02 in 10.0 mi Calm Calm - N/A   Clear
3:34 AM 57.2 °F 51.8 °F 82% 30.02 in 10.0 mi Calm Calm - N/A   Scattered Clouds
3:53 AM 57.2 °F 51.8 °F 82% 30.02 in 10.0 mi Calm Calm - N/A   Mostly Cloudy
4:14 AM 57.2 °F 51.8 °F 82% 30.02 in 10.0 mi Calm Calm - N/A   Overcast
4:34 AM 57.2 °F 51.8 °F 82% 30.02 in 10.0 mi Calm Calm - N/A   Mostly Cloudy
4:53 AM 57.2 °F 51.8 °F 82% 30.02 in 10.0 mi Calm Calm - N/A Rain Light Rain
5:13 AM 57.2 °F 51.8 °F 82% 30.03 in 10.0 mi Calm Calm - N/A Rain Light Rain
5:33 AM 57.2 °F 51.8 °F 82% 30.03 in 10.0 mi Calm Calm - N/A Rain Light Rain
5:54 AM 55.4 °F 53.6 °F 94% 30.04 in 10.0 mi Calm Calm - N/A Rain Light Rain
6:13 AM 55.4 °F 51.8 °F 88% 30.04 in 10.0 mi WNW 4.6 mph - 0.01 in Rain Light Rain
6:34 AM 55.4 °F 53.6 °F 94% 30.04 in 10.0 mi Calm Calm - 0.01 in Rain Light Rain
6:54 AM 57.2 °F 51.8 °F 82% 30.04 in 10.0 mi NNW 3.5 mph - 0.01 in   Overcast
7:13 AM 57.2 °F 51.8 °F 82% 30.05 in 10.0 mi NW 6.9 mph - N/A   Overcast
7:34 AM 57.2 °F 51.8 °F 82% 30.05 in 10.0 mi NNW 8.1 mph - N/A   Overcast
7:54 AM 57.2 °F 51.8 °F 82% 30.06 in 10.0 mi NNW 6.9 mph - N/A   Overcast
8:13 AM 57.2 °F 51.8 °F 82% 30.06 in 10.0 mi NW 9.2 mph - N/A Rain Light Rain
8:34 AM 57.2 °F 51.8 °F 82% 30.05 in 10.0 mi NNW 10.4 mph - N/A   Overcast
8:53 AM 59.0 °F 51.8 °F 77% 30.05 in 10.0 mi North 10.4 mph - N/A   Mostly Cloudy
9:14 AM 60.8 °F 51.8 °F 72% 30.05 in 10.0 mi North 10.4 mph - N/A   Scattered Clouds
9:54 AM 60.8 °F 50.0 °F 68% 30.06 in 10.0 mi North 8.1 mph - N/A   Mostly Cloudy
10:14 AM 60.8 °F 50.0 °F 68% 30.05 in 10.0 mi NNE 5.8 mph - N/A Rain Light Rain
10:33 AM 60.8 °F 51.8 °F 72% 30.04 in 10.0 mi NE 6.9 mph - N/A Rain Light Rain
11:14 AM 64.4 °F 51.8 °F 64% 30.04 in 10.0 mi NE 5.8 mph - N/A   Clear
11:33 AM 62.6 °F 50.0 °F 63% 30.05 in 10.0 mi NE 4.6 mph - N/A   Mostly Cloudy
11:54 AM 62.6 °F 51.8 °F 68% 30.05 in 10.0 mi NE 4.6 mph - N/A   Overcast
12:14 PM 62.6 °F 51.8 °F 68% 30.04 in 10.0 mi ENE 4.6 mph - N/A   Overcast
12:33 PM 62.6 °F 51.8 °F 68% 30.04 in 10.0 mi NE 4.6 mph - N/A   Overcast
12:54 PM 64.4 °F 51.8 °F 64% 30.02 in 10.0 mi ENE 5.8 mph - N/A   Overcast
1:12 PM 64.4 °F 51.8 °F 64% 30.03 in 10.0 mi ENE 3.5 mph - N/A   Overcast
2:54 PM 66.2 °F 53.6 °F 64% 30.01 in 10.0 mi NNE 5.8 mph - N/A   Scattered Clouds
3:13 PM 66.2 °F 51.8 °F 60% 30.00 in 10.0 mi NE 5.8 mph - N/A   Scattered Clouds
3:54 PM 66.2 °F 51.8 °F 60% 30.00 in 10.0 mi NNE 5.8 mph - N/A   Overcast
4:13 PM 68.0 °F 51.8 °F 56% 30.00 in 10.0 mi ENE 3.5 mph - N/A   Overcast
4:34 PM 68.0 °F 53.6 °F 60% 30.00 in 10.0 mi ENE 5.8 mph - N/A   Overcast
4:54 PM 68.0 °F 51.8 °F 56% 29.99 in 10.0 mi ENE 3.5 mph - N/A   Overcast
5:13 PM 69.8 °F 53.6 °F 56% 29.99 in 10.0 mi NE 4.6 mph - N/A   Overcast
5:34 PM 69.8 °F 53.6 °F 56% 29.99 in 10.0 mi NE 5.8 mph - N/A   Mostly Cloudy
5:53 PM 68.0 °F 53.6 °F 60% 29.98 in 10.0 mi ENE 4.6 mph - N/A   Overcast
6:13 PM 68.0 °F 53.6 °F 60% 29.99 in 10.0 mi East 9.2 mph - N/A   Overcast
6:34 PM 66.2 °F 51.8 °F 60% 29.99 in 10.0 mi ENE 6.9 mph - N/A   Overcast
6:53 PM 66.2 °F 51.8 °F 60% 29.99 in 10.0 mi ENE 5.8 mph - N/A   Overcast
7:13 PM 66.2 °F 53.6 °F 64% 29.98 in 10.0 mi NE 3.5 mph - N/A   Overcast
7:34 PM 66.2 °F 53.6 °F 64% 29.98 in 10.0 mi Calm Calm - N/A   Overcast
7:54 PM 66.2 °F 53.6 °F 64% 29.98 in 10.0 mi NE 3.5 mph - N/A   Overcast
8:14 PM 64.4 °F 53.6 °F 68% 29.98 in 10.0 mi ENE 3.5 mph - N/A   Overcast
8:33 PM 64.4 °F 53.6 °F 68% 29.98 in 10.0 mi NE 3.5 mph - N/A   Overcast
8:54 PM 62.6 °F 53.6 °F 72% 29.98 in 10.0 mi Calm Calm - N/A   Scattered Clouds
9:14 PM 60.8 °F 53.6 °F 77% 29.98 in 10.0 mi Calm Calm - N/A   Clear
9:33 PM 60.8 °F 53.6 °F 77% 29.99 in 10.0 mi Calm Calm - N/A   Clear
9:54 PM 60.8 °F 53.6 °F 77% 29.99 in 10.0 mi Calm Calm - N/A   Clear
10:14 PM 60.8 °F 53.6 °F 77% 29.99 in 10.0 mi Calm Calm - N/A   Clear
10:33 PM 59.0 °F 53.6 °F 82% 29.99 in 10.0 mi Calm Calm - N/A   Clear
10:54 PM 59.0 °F 53.6 °F 82% 29.98 in 10.0 mi Calm Calm - N/A   Clear
11:13 PM 57.2 °F 53.6 °F 88% 29.98 in 10.0 mi Calm Calm - N/A   Clear
11:34 PM 55.4 °F 53.6 °F 94% 29.98 in 10.0 mi Calm Calm - N/A   Clear
11:54 PM 55.4 °F 53.6 °F 94% 29.98 in 10.0 mi Calm Calm - N/A   Clear